Starlink 5565

decayed
NORAD ID: 55745 Int'l Des: 2023-028 Owner: SPXS Country: US Constellation: starlink
LEOCIRCULAR
グループ

Starlink 5565について

説明を読み込み中...

高度履歴

Altitude vs Time

uPlot chart will show altitude changes over time

軌道要素

1 55745U 23028E 25059.64071941 .10865263 44198-5 27964-3 0 9997
2 55745 69.9685 90.1836 0005743 290.3697 187.4649 16.45575406110423
Epoch: Feb 28, 2025 • Age: 9071 hours

現在のステータス

Position data unavailable
打ち上げ日 Mar 3, 2023
運用期間 3 years
落下予定日 Feb 21, 2025
タイプ internet

技術仕様

分類 Payload
質量 305.00 kg
乾燥質量 290.00 kg
総質量 305.00 kg
長さ 0.20 m
直径 2.80 m
スパン 9.00 m
形状 Box + pan
製造者 SPXS
バスタイプ Starlink
フェーズステータス Unknown Transfer Status
所有者/国 SPXS/US

大規模コンステレーション

Loading constellations...